GW2134 Weather Reports


Display with metric or nautical units.
time (UTC)temp
F
wind
direction
speed
MPH
gust
MPH
rain 1hr
in
rain 24hr
in
rain mn
in
humidity
%
barometer
mb
20260904040105 69 0 0.0 4.0 0.00 0.00 0.00 70 1024.3
20260904034603 69 0 0.0 1.0 0.00 0.00 0.00 69 1024.3
20260904033059 70 0 0.0 3.0 0.00 0.00 0.00 69 1024.3
20260904031603 70 36 2.0 5.0 0.00 0.00 0.00 69 1024.4
20260904030103 70 5 1.0 3.0 0.00 0.00 0.00 69 1024.3
20260904024557 69 323 0.0 2.0 0.00 0.00 0.00 68 1024.4
20260904023104 70 319 2.0 4.0 0.00 0.00 0.00 69 1024.3
20260904021607 70 0 1.0 4.0 0.00 0.00 0.00 68 1024.3
20260904020101 70 325 2.0 5.0 0.00 0.00 0.00 70 1024.3
20260904014601 70 24 1.0 4.0 0.00 0.00 0.00 68 1024.4
20260904013052 70 19 0.0 2.0 0.00 0.00 0.00 68 1024.5
20260904011606 70 0 0.0 1.0 0.00 0.00 0.00 67 1024.5
20260904010058 70 0 2.0 5.0 0.00 0.00 0.00 67 1024.6
20260904004555 70 15 2.0 4.0 0.00 0.00 0.00 68 1024.6
20260904003053 70 0 0.0 0.0 0.00 0.00 0.00 67 1024.6
20260904001553 70 0 0.0 1.0 0.00 0.00 0.00 67 1024.6
20260904000120 70 323 1.0 4.0 0.00 0.00 0.00 67 1024.6
20260903234556 70 344 2.0 4.0 0.00 0.00 0.00 66 1024.6
20260903233103 70 17 2.0 5.0 0.00 0.00 0.00 66 1024.7
20260903231555 70 346 2.0 4.0 0.00 0.00 0.00 66 1024.6
20260903230110 71 9 1.0 5.0 0.00 0.00 0.00 66 1024.7
20260903224617 71 39 0.0 4.0 0.00 0.00 0.00 66 1024.5
20260903223059 71 355 0.0 6.0 0.00 0.00 0.00 65 1024.5
20260903221608 71 5 1.0 4.0 0.00 0.00 0.00 66 1024.6
20260903220057 71 0 0.0 2.0 0.00 0.00 0.00 65 1024.6
20260903214610 71 0 0.0 3.0 0.00 0.00 0.00 65 1024.6
20260903213102 71 11 4.0 8.0 0.00 0.00 0.00 64 1024.4
20260903211555 72 360 3.0 6.0 0.00 0.00 0.00 64 1024.5
20260903210128 71 9 2.0 4.0 0.00 0.00 0.00 64 1024.4
20260903204601 72 24 3.0 6.0 0.00 0.00 0.00 64 1024.4
20260903203110 72 22 0.0 4.0 0.00 0.00 0.00 63 1024.4
20260903201554 73 0 2.0 3.0 0.00 0.00 0.00 62 1024.5
20260903194559 73 9 4.0 6.0 0.00 0.00 0.00 61 1024.3
20260903193059 74 355 4.0 7.0 0.00 0.00 0.00 61 1024.4
20260903191559 74 252 2.0 6.0 0.00 0.00 0.00 60 1024.3
20260903184559 74 355 4.0 8.0 0.00 0.00 0.00 60 1024.2
20260903183103 74 360 3.0 7.0 0.00 0.00 0.00 61 1024.1
20260903181606 74 347 3.0 7.0 0.00 0.00 0.00 61 1023.8
20260903180105 75 17 4.0 7.0 0.00 0.00 0.00 61 1023.7
20260903174558 76 334 3.0 8.0 0.00 0.40 0.00 60 1023.5
20260903173103 76 331 4.0 5.0 0.00 0.40 0.00 58 1023.3
20260903171608 77 39 2.0 7.0 0.00 0.40 0.00 56 1023.2
20260903164614 79 267 1.0 4.0 0.00 0.40 0.00 52 1023.2
20260903163059 81 13 1.0 4.0 0.00 0.40 0.00 49 1023.1
20260903161603 83 9 1.0 3.0 0.00 0.40 0.00 47 1022.9
20260903160127 85 15 2.0 4.0 0.00 0.40 0.00 42 1022.9
20260903154606 87 355 1.0 4.0 0.00 0.40 0.00 38 1023.2
20260903153054 87 9 1.0 4.0 0.00 0.40 0.00 37 1023.3
20260903151602 87 343 2.0 6.0 0.00 0.40 0.00 41 1023.3
20260903150111 87 0 0.0 8.0 0.00 0.40 0.00 40 1023.3
20260903144606 87 338 1.0 5.0 0.00 0.40 0.00 40 1023.4
20260903143111 87 340 1.0 5.0 0.00 0.40 0.00 39 1023.2
20260903141613 87 19 2.0 10.0 0.00 0.40 0.00 38 1023.3
20260903140109 88 346 1.0 5.0 0.00 0.40 0.00 35 1023.4
20260903134558 88 315 1.0 8.0 0.00 0.40 0.00 39 1023.1
20260903133053 88 341 5.0 12.0 0.00 0.40 0.00 42 1023.3
20260903131603 88 0 3.0 9.0 0.00 0.40 0.00 42 1023.4
20260903130057 87 46 2.0 5.0 0.00 0.40 0.00 42 1023.5
20260903124555 87 110 2.0 8.0 0.00 0.40 0.00 44 1023.7
20260903123052 86 0 2.0 7.0 0.00 0.40 0.00 45 1023.6
20260903121558 85 0 2.0 9.0 0.00 0.40 0.00 48 1023.7
20260903120104 85 185 3.0 6.0 0.00 0.40 0.00 48 1023.8
20260903114606 85 150 2.0 7.0 0.00 0.40 0.00 47 1023.6
20260903113101 86 209 4.0 8.0 0.00 0.40 0.00 48 1023.7
20260903111554 85 103 0.0 6.0 0.00 0.40 0.00 49 1023.9
20260903104607 84 74 2.0 10.0 0.00 0.40 0.00 52 1024.2
20260903103104 83 114 3.0 9.0 0.00 0.40 0.00 53 1024.4
20260903101610 83 85 4.0 9.0 0.00 0.40 0.00 54 1024.6
20260903100103 83 191 2.0 7.0 0.00 0.40 0.00 55 1024.8
20260903094554 82 180 2.0 6.0 0.00 0.40 0.00 56 1024.8
20260903093112 82 148 1.0 7.0 0.00 0.40 0.00 57 1024.8
20260903091601 81 128 2.0 7.0 0.00 0.40 0.00 58 1024.9
20260903090105 80 117 1.0 5.0 0.00 0.40 0.00 58 1024.8
20260903084611 80 0 1.0 4.0 0.00 0.40 0.00 60 1024.8
20260903083059 79 136 1.0 5.0 0.00 0.40 0.00 61 1024.7
20260903081559 79 115 0.0 3.0 0.00 0.40 0.00 62 1024.6
20260903080055 78 124 1.0 4.0 0.00 0.40 0.00 64 1024.5
20260903074552 76 94 0.0 1.0 0.00 0.40 0.00 65 1024.4
20260903073100 75 0 0.0 2.0 0.00 0.40 0.00 71 1024.3
20260903071602 74 0 0.0 2.0 0.00 0.40 0.00 72 1024.3
20260903070100 73 0 0.0 2.0 0.00 0.40 0.00 75 1024.2
20260903064600 71 0 0.0 2.0 0.00 0.40 0.00 78 1024.2
20260903063126 70 0 0.0 0.0 0.00 0.40 0.00 79 1024.2
20260903061559 69 0 0.0 1.0 0.00 0.40 0.00 79 1024.1
20260903060115 69 0 0.0 0.0 0.00 0.40 0.00 80 1024.0
20260903054554 69 0 0.0 3.0 0.00 0.40 0.00 79 1023.9
20260903053053 68 338 2.0 4.0 0.00 0.40 0.00 77 1023.8
20260903051552 68 355 0.0 4.0 0.00 0.40 0.00 76 1023.8
20260903050128 67 327 2.0 6.0 0.00 0.40 0.00 78 1023.5
20260903044555 67 9 3.0 6.0 0.00 0.40 0.00 79 1023.3
20260903043054 67 329 1.0 6.0 0.00 0.40 0.00 79 1023.2
20260903041554 67 355 2.0 4.0 0.00 0.40 0.00 79 1023.1